West Palm Beach, FL

3:57 PM EST on December 06, 2019 (GMT -0500)
Palm Beach International

Weather History for KPBI - October, 2019

Change the Weather History Date:

Tuesday, October 1, 2019

  Actual Average Record
Temperature  
Mean Temperature 83 °F 81 °F  
Max Temperature 88 °F 87 °F 94 °F (1902)
Min Temperature 78 °F 74 °F 55 °F (1920)
Degree Days  
Heating Degree Days 0 0  
Month to date heating degree days 0  
Since 1 July heating degree days 0  
Cooling Degree Days 18 16  
Month to date cooling degree days 16  
Year to date cooling degree days 3224  
Growing Degree Days 33 (Base 50)    
Moisture  
Dew Point 69 °F    
Average Humidity 64    
Maximum Humidity 71    
Minimum Humidity 52    
Precipitation  
Precipitation 0.00 in 0.20 in 2.73 in (1943)
Month to date precipitation 0.20  
Year to date precipitation 49.27  
Snow  
Snow 0.00 in - - ()
Month to date snowfall  
Since 1 July snowfall  
Since 1 September snowfall  
Snow Depth -    
Sea Level Pressure  
Sea Level Pressure 29.93 in    
Wind  
Wind Speed 15 mph (ENE)    
Max Wind Speed 20 mph    
Max Gust Speed 28 mph    
Visibility 10 miles    
Events      
T = Trace of Precipitation, MM = Missing Value Source: NWS Daily Summary

Daily Weather History Graph

Daily Weather History Graph

Search for Another Location

Airport or City:

Astronomy

Oct. 01, 2019 Rise Set
Actual Time 7:12 AM EDT 7:06 PM EDT
Civil Twilight 6:49 AM EDT 7:30 PM EDT
Nautical Twilight 6:22 AM EDT 7:56 PM EDT
Astronomical Twilight 5:55 AM EDT 8:23 PM EDT
Moon 10:11 AM EDT (10/1) 9:37 PM EDT (10/1)
Length of Visible Light 12h 40m
Length of Day
11h 54m
Waxing Crescent, 12% of the Moon is Illuminated
Oct 1
Waxing Crescent
Oct 5
First Quarter
Oct 13
Full
Oct 21
Last Quarter
Oct 27
New

Hourly Weather History & Observations

Time (EDT) Temp. Heat Index Dew Point Humidity Pressure Visibility Wind Dir Wind Speed Gust Speed Precip Events Conditions
12:53 AM 78.1 °F - 66.9 °F 68% 29.95 in 10.0 mi ENE 13.8 mph - N/A   Partly Cloudy
1:53 AM 80.1 °F 82.3 °F 66.9 °F 64% 29.94 in 10.0 mi ENE 16.1 mph 21.9 mph N/A   Scattered Clouds
2:53 AM 80.1 °F 82.7 °F 68.0 °F 67% 29.92 in 10.0 mi ENE 13.8 mph - N/A   Scattered Clouds
3:53 AM 80.1 °F 82.7 °F 68.0 °F 67% 29.90 in 10.0 mi ENE 11.5 mph - N/A   Scattered Clouds
4:53 AM 80.1 °F 82.7 °F 68.0 °F 67% 29.89 in 10.0 mi ENE 12.7 mph - N/A   Scattered Clouds
5:53 AM 80.1 °F 82.7 °F 68.0 °F 67% 29.90 in 10.0 mi ENE 12.7 mph - N/A   Scattered Clouds
6:53 AM 80.1 °F 82.7 °F 68.0 °F 67% 29.91 in 10.0 mi ENE 13.8 mph 21.9 mph N/A   Scattered Clouds
7:53 AM 81.0 °F 84.1 °F 69.1 °F 67% 29.92 in 10.0 mi ENE 17.3 mph 23.0 mph N/A   Scattered Clouds
8:53 AM 81.0 °F 83.8 °F 68.0 °F 65% 29.93 in 10.0 mi NE 16.1 mph 25.3 mph N/A   Mostly Cloudy
9:53 AM 82.0 °F 86.7 °F 72.0 °F 71% 29.95 in 10.0 mi ENE 15.0 mph - 0.00 in   Mostly Cloudy
10:53 AM 84.0 °F 88.4 °F 70.0 °F 63% 29.96 in 10.0 mi ENE 17.3 mph 25.3 mph N/A   Mostly Cloudy
11:39 AM 84.0 °F 89.0 °F 71.1 °F 65% 29.96 in 10.0 mi ENE 17.3 mph 25.3 mph N/A   Mostly Cloudy
11:53 AM 84.0 °F 89.6 °F 72.0 °F 67% 29.96 in 10.0 mi ENE 13.8 mph - N/A   Mostly Cloudy
12:53 PM 82.9 °F 88.0 °F 72.0 °F 69% 29.96 in 10.0 mi ENE 17.3 mph 23.0 mph 0.00 in   Mostly Cloudy
12:59 PM 82.9 °F 87.5 °F 71.1 °F 67% 29.96 in 10.0 mi NE 13.8 mph 26.5 mph N/A   Mostly Cloudy
1:53 PM 84.9 °F 89.4 °F 70.0 °F 61% 29.94 in 10.0 mi ENE 19.6 mph 25.3 mph N/A   Scattered Clouds
2:53 PM 87.1 °F 90.6 °F 68.0 °F 53% 29.93 in 10.0 mi ENE 18.4 mph 26.5 mph N/A   Mostly Cloudy
3:53 PM 84.9 °F 88.8 °F 69.1 °F 59% 29.91 in 10.0 mi ENE 18.4 mph 25.3 mph N/A   Mostly Cloudy
4:53 PM 86.0 °F 90.1 °F 69.1 °F 57% 29.90 in 10.0 mi ENE 17.3 mph 25.3 mph N/A   Mostly Cloudy
5:53 PM 84.0 °F 87.8 °F 69.1 °F 61% 29.89 in 10.0 mi ENE 16.1 mph 25.3 mph N/A   Mostly Cloudy
6:53 PM 82.0 °F 85.5 °F 69.1 °F 65% 29.90 in 10.0 mi NE 18.4 mph 27.6 mph N/A   Mostly Cloudy
7:53 PM 82.0 °F 85.9 °F 70.0 °F 67% 29.91 in 10.0 mi ENE 18.4 mph 24.2 mph N/A   Mostly Cloudy
8:53 PM 81.0 °F 84.1 °F 69.1 °F 67% 29.93 in 10.0 mi ENE 15.0 mph 23.0 mph N/A   Mostly Cloudy
9:53 PM 81.0 °F 84.1 °F 69.1 °F 67% 29.94 in 10.0 mi ENE 15.0 mph - N/A   Mostly Cloudy
10:53 PM 81.0 °F 84.4 °F 70.0 °F 69% 29.94 in 10.0 mi ENE 18.4 mph 23.0 mph N/A   Scattered Clouds
11:53 PM 81.0 °F 84.4 °F 70.0 °F 69% 29.93 in 10.0 mi ENE 12.7 mph - N/A   Mostly Cloudy